Time,TemperatureF,DewpointF,PressureIn,WindDirection,WindDirectionDegrees,WindSpeedMPH,WindSpeedGustMPH,Humidity,HourlyPrecipIn,Conditions,Clouds,dailyrainin,SoftwareType,DateUTC
2013-04-23 00:02:00,59.0,51.0,30.02,SSE,163,0.0,0.0,76,0.00,,,0.00,,2013-04-23 05:02:00,
2013-04-23 00:12:00,59.0,51.0,30.02,SSE,163,0.0,0.0,76,0.00,,,0.00,,2013-04-23 05:12:00,
2013-04-23 00:22:00,59.0,51.0,30.02,SSE,163,0.0,0.0,76,0.00,,,0.00,,2013-04-23 05:22:00,
2013-04-23 00:32:00,59.0,51.0,30.02,SSE,163,0.0,0.0,76,0.00,,,0.00,,2013-04-23 05:32:00,
2013-04-23 00:42:00,59.0,51.0,30.02,SSE,163,0.0,0.0,76,0.00,,,0.00,,2013-04-23 05:42:00,
2013-04-23 00:52:00,59.0,51.0,30.02,SSE,164,0.0,0.0,76,0.00,,,0.00,,2013-04-23 05:52:00,
2013-04-23 01:01:00,59.0,51.0,30.02,SSE,163,0.0,2.0,76,0.00,,,0.00,,2013-04-23 06:01:00,
2013-04-23 01:12:00,59.0,51.0,30.02,SSE,163,0.0,2.0,76,0.00,,,0.00,,2013-04-23 06:12:00,
2013-04-23 01:21:00,60.0,52.0,30.02,SSE,163,0.0,5.0,74,0.00,,,0.00,,2013-04-23 06:21:00,
2013-04-23 01:33:00,60.0,52.0,30.01,SSE,156,0.0,4.0,74,0.00,,,0.00,,2013-04-23 06:33:00,
2013-04-23 01:42:00,60.0,52.0,30.01,SSE,156,0.0,4.0,74,0.00,,,0.00,,2013-04-23 06:42:00,
2013-04-23 01:52:00,60.0,52.0,30.00,SSE,161,0.0,5.0,74,0.00,,,0.00,,2013-04-23 06:52:00,
2013-04-23 02:02:00,60.0,51.0,30.00,South,180,0.0,6.0,73,0.00,,,0.00,,2013-04-23 07:02:00,
2013-04-23 02:11:00,60.0,51.0,30.00,South,180,0.0,6.0,73,0.00,,,0.00,,2013-04-23 07:11:00,
2013-04-23 02:21:00,60.0,51.0,29.99,SSE,161,0.0,6.0,73,0.00,,,0.00,,2013-04-23 07:21:00,
2013-04-23 02:32:00,60.0,52.0,29.99,SSE,168,0.0,7.0,74,0.00,,,0.00,,2013-04-23 07:32:00,
2013-04-23 02:42:00,60.0,52.0,29.99,SSE,168,0.0,7.0,74,0.00,,,0.00,,2013-04-23 07:42:00,
2013-04-23 02:52:00,60.0,52.0,29.99,SSE,155,0.0,8.0,74,0.00,,,0.00,,2013-04-23 07:52:00,
2013-04-23 03:02:00,60.0,52.0,29.99,South,174,3.0,7.0,75,0.00,,,0.00,,2013-04-23 08:02:00,
2013-04-23 03:11:00,60.0,52.0,29.99,South,174,3.0,7.0,75,0.00,,,0.00,,2013-04-23 08:11:00,
2013-04-23 03:21:00,60.0,52.0,29.99,SE,136,1.0,5.0,76,0.00,,,0.00,,2013-04-23 08:21:00,
2013-04-23 03:31:00,60.0,53.0,29.99,South,190,3.0,9.0,77,0.00,,,0.00,,2013-04-23 08:31:00,
2013-04-23 03:42:00,60.0,53.0,29.99,South,190,3.0,9.0,77,0.00,,,0.00,,2013-04-23 08:42:00,
2013-04-23 03:52:00,60.0,53.0,29.99,South,176,3.0,10.0,78,0.00,,,0.00,,2013-04-23 08:52:00,
2013-04-23 04:01:00,60.0,53.0,29.99,SSE,153,2.0,9.0,79,0.00,,,0.00,,2013-04-23 09:01:00,
2013-04-23 04:11:00,60.0,53.0,29.99,SSE,153,2.0,9.0,79,0.00,,,0.00,,2013-04-23 09:11:00,
2013-04-23 04:21:00,60.0,54.0,29.99,SE,146,3.0,7.0,80,0.00,,,0.00,,2013-04-23 09:21:00,
2013-04-23 04:33:00,60.0,54.0,29.99,South,178,1.0,8.0,81,0.00,,,0.00,,2013-04-23 09:33:00,
2013-04-23 04:43:00,60.0,54.0,29.99,South,178,1.0,8.0,81,0.00,,,0.00,,2013-04-23 09:43:00,
2013-04-23 04:53:00,60.0,54.0,29.99,SSW,195,4.0,8.0,82,0.00,,,0.00,,2013-04-23 09:53:00,
2013-04-23 05:02:00,60.0,55.0,29.98,SSW,195,3.0,8.0,83,0.00,,,0.00,,2013-04-23 10:02:00,
2013-04-23 05:13:00,60.0,55.0,29.98,SSW,195,3.0,8.0,83,0.00,,,0.00,,2013-04-23 10:13:00,
2013-04-23 05:22:00,59.0,54.0,29.98,SSE,165,1.0,7.0,84,0.00,,,0.00,,2013-04-23 10:22:00,
2013-04-23 05:33:00,59.0,54.0,29.99,SSW,198,2.0,7.0,85,0.00,,,0.00,,2013-04-23 10:33:00,
2013-04-23 05:42:00,59.0,54.0,29.99,SSW,198,2.0,7.0,85,0.00,,,0.00,,2013-04-23 10:42:00,
2013-04-23 05:52:00,59.0,54.0,29.99,SE,136,1.0,10.0,85,0.00,,,0.00,,2013-04-23 10:52:00,
2013-04-23 06:02:00,60.0,56.0,29.98,South,184,3.0,10.0,86,0.00,,,0.00,,2013-04-23 11:02:00,
2013-04-23 06:12:00,60.0,56.0,29.98,South,184,3.0,10.0,86,0.00,,,0.00,,2013-04-23 11:12:00,
2013-04-23 06:21:00,60.0,56.0,29.98,South,175,3.0,10.0,86,0.00,,,0.00,,2013-04-23 11:21:00,
2013-04-23 06:32:00,60.0,56.0,29.98,SSW,198,0.0,8.0,86,0.00,,,0.00,,2013-04-23 11:32:00,
2013-04-23 06:42:00,60.0,56.0,29.98,SSW,198,0.0,8.0,86,0.00,,,0.00,,2013-04-23 11:42:00,
2013-04-23 06:53:00,60.0,56.0,29.99,SSE,150,1.0,6.0,87,0.00,,,0.00,,2013-04-23 11:53:00,
2013-04-23 07:02:00,60.0,56.0,30.00,SSE,162,0.0,5.0,87,0.00,,,0.00,,2013-04-23 12:02:00,
2013-04-23 07:12:00,60.0,56.0,30.00,SSE,162,0.0,5.0,87,0.00,,,0.00,,2013-04-23 12:12:00,
2013-04-23 07:22:00,60.0,56.0,30.00,SSW,202,1.0,5.0,88,0.00,,,0.00,,2013-04-23 12:22:00,
2013-04-23 07:32:00,60.0,56.0,30.01,SE,127,1.0,5.0,88,0.00,,,0.00,,2013-04-23 12:32:00,
2013-04-23 07:41:00,60.0,56.0,30.01,SE,127,1.0,5.0,88,0.00,,,0.00,,2013-04-23 12:41:00,
2013-04-23 07:52:00,61.0,57.0,30.00,SSW,205,1.0,7.0,88,0.00,,,0.00,,2013-04-23 12:52:00,
2013-04-23 08:01:00,61.0,57.0,30.01,SSE,160,2.0,6.0,87,0.00,,,0.00,,2013-04-23 13:01:00,
2013-04-23 08:11:00,61.0,57.0,30.01,SSE,160,2.0,6.0,87,0.00,,,0.00,,2013-04-23 13:11:00,
2013-04-23 08:21:00,62.0,58.0,30.01,SSE,155,2.0,7.0,87,0.00,,,0.00,,2013-04-23 13:21:00,
2013-04-23 08:32:00,63.0,58.0,30.01,South,171,4.0,10.0,85,0.00,,,0.00,,2013-04-23 13:32:00,
2013-04-23 08:41:00,63.0,58.0,30.01,South,171,4.0,10.0,85,0.00,,,0.00,,2013-04-23 13:41:00,
2013-04-23 08:52:00,64.0,59.0,30.00,SSW,199,8.0,19.0,84,0.00,,,0.00,,2013-04-23 13:52:00,
2013-04-23 09:01:00,64.0,59.0,30.01,SW,229,7.0,18.0,84,0.00,,,0.00,,2013-04-23 14:01:00,
2013-04-23 09:11:00,64.0,59.0,30.01,SW,229,7.0,18.0,84,0.00,,,0.00,,2013-04-23 14:11:00,
2013-04-23 09:22:00,63.0,58.0,30.01,South,171,7.0,14.0,85,0.00,,,0.00,,2013-04-23 14:22:00,
2013-04-23 09:32:00,63.0,58.0,30.01,SE,139,5.0,16.0,85,0.00,,,0.00,,2013-04-23 14:32:00,
2013-04-23 09:42:00,63.0,58.0,30.01,SE,139,5.0,16.0,85,0.00,,,0.00,,2013-04-23 14:42:00,
2013-04-23 09:52:00,63.0,58.0,30.02,SE,128,4.0,17.0,85,0.00,,,0.00,,2013-04-23 14:52:00,
2013-04-23 10:01:00,63.0,58.0,30.02,SE,128,4.0,17.0,85,0.00,,,0.00,,2013-04-23 15:01:00,
2013-04-23 10:12:00,63.0,58.0,30.03,South,188,4.0,15.0,85,0.00,,,0.00,,2013-04-23 15:12:00,
2013-04-23 10:21:00,64.0,59.0,30.03,SSW,197,6.0,16.0,85,0.00,,,0.00,,2013-04-23 15:21:00,
2013-04-23 10:32:00,64.0,59.0,30.03,SSW,195,5.0,16.0,85,0.00,,,0.00,,2013-04-23 15:32:00,
2013-04-23 10:42:00,64.0,59.0,30.03,SSW,195,5.0,16.0,85,0.00,,,0.00,,2013-04-23 15:42:00,
2013-04-23 10:53:00,65.0,60.0,30.03,SSE,167,4.0,13.0,83,0.00,,,0.00,,2013-04-23 15:53:00,
2013-04-23 11:03:00,65.0,60.0,30.03,South,173,7.0,14.0,83,0.00,,,0.00,,2013-04-23 16:03:00,
2013-04-23 11:12:00,65.0,60.0,30.03,South,173,7.0,14.0,83,0.00,,,0.00,,2013-04-23 16:12:00,
2013-04-23 11:23:00,66.0,60.0,30.03,SSW,198,2.0,10.0,82,0.00,,,0.00,,2013-04-23 16:23:00,
2013-04-23 11:34:00,66.0,60.0,30.03,SE,138,4.0,11.0,81,0.00,,,0.00,,2013-04-23 16:34:00,
2013-04-23 11:43:00,66.0,60.0,30.03,SE,138,4.0,11.0,81,0.00,,,0.00,,2013-04-23 16:43:00,
2013-04-23 11:53:00,67.0,61.0,30.03,South,188,1.0,10.0,81,0.00,,,0.00,,2013-04-23 16:53:00,
2013-04-23 12:02:00,68.0,61.0,30.03,South,190,4.0,10.0,78,0.00,,,0.00,,2013-04-23 17:02:00,
2013-04-23 12:11:00,68.0,61.0,30.03,South,190,4.0,10.0,78,0.00,,,0.00,,2013-04-23 17:11:00,
2013-04-23 12:22:00,68.0,61.0,30.01,SW,234,4.0,16.0,78,0.00,,,0.00,,2013-04-23 17:22:00,
2013-04-23 12:32:00,69.0,61.0,30.00,South,174,6.0,15.0,76,0.00,,,0.00,,2013-04-23 17:32:00,
2013-04-23 12:42:00,69.0,61.0,30.00,South,174,6.0,15.0,76,0.00,,,0.00,,2013-04-23 17:42:00,
2013-04-23 12:53:00,70.0,61.0,30.00,South,183,6.0,14.0,73,0.00,,,0.00,,2013-04-23 17:53:00,
2013-04-23 13:02:00,70.0,61.0,29.99,South,187,6.0,15.0,73,0.00,,,0.00,,2013-04-23 18:02:00,
2013-04-23 13:12:00,70.0,61.0,29.99,South,187,6.0,15.0,73,0.00,,,0.00,,2013-04-23 18:12:00,
2013-04-23 13:22:00,71.0,60.0,29.98,SSE,167,10.0,17.0,69,0.00,,,0.00,,2013-04-23 18:22:00,
2013-04-23 13:32:00,71.0,59.0,29.97,SE,135,10.0,15.0,67,0.00,,,0.00,,2013-04-23 18:32:00,
2013-04-23 13:42:00,71.0,59.0,29.97,SE,135,10.0,15.0,67,0.00,,,0.00,,2013-04-23 18:42:00,
2013-04-23 13:52:00,72.0,60.0,29.97,SSE,150,11.0,24.0,65,0.00,,,0.00,,2013-04-23 18:52:00,
2013-04-23 14:02:00,72.0,58.0,29.96,SSE,164,10.0,20.0,62,0.00,,,0.00,,2013-04-23 19:02:00,
2013-04-23 14:11:00,72.0,58.0,29.96,SSE,164,10.0,20.0,62,0.00,,,0.00,,2013-04-23 19:11:00,
2013-04-23 14:22:00,73.0,58.0,29.96,South,175,10.0,18.0,60,0.00,,,0.00,,2013-04-23 19:22:00,
2013-04-23 14:32:00,73.0,59.0,29.95,SE,138,8.0,26.0,62,0.00,,,0.00,,2013-04-23 19:32:00,
2013-04-23 14:42:00,73.0,59.0,29.95,SE,138,8.0,26.0,62,0.00,,,0.00,,2013-04-23 19:42:00,
2013-04-23 14:52:00,74.0,59.0,29.95,South,188,9.0,24.0,60,0.00,,,0.00,,2013-04-23 19:52:00,
2013-04-23 15:01:00,74.0,60.0,29.94,SSW,194,6.0,19.0,61,0.00,,,0.00,,2013-04-23 20:01:00,
2013-04-23 15:11:00,74.0,60.0,29.94,SSW,194,6.0,19.0,61,0.00,,,0.00,,2013-04-23 20:11:00,
2013-04-23 15:22:00,74.0,60.0,29.93,SE,126,7.0,22.0,61,0.00,,,0.00,,2013-04-23 20:22:00,
2013-04-23 15:32:00,75.0,60.0,29.92,SW,216,11.0,20.0,60,0.00,,,0.00,,2013-04-23 20:32:00,
2013-04-23 15:42:00,75.0,60.0,29.92,SW,216,11.0,20.0,60,0.00,,,0.00,,2013-04-23 20:42:00,
2013-04-23 15:52:00,74.0,60.0,29.92,SSW,205,6.0,23.0,61,0.00,,,0.00,,2013-04-23 20:52:00,
2013-04-23 16:01:00,74.0,60.0,29.91,South,179,7.0,17.0,62,0.00,,,0.00,,2013-04-23 21:01:00,
2013-04-23 16:12:00,74.0,60.0,29.91,South,179,7.0,17.0,62,0.00,,,0.00,,2013-04-23 21:12:00,
2013-04-23 16:21:00,74.0,61.0,29.91,South,174,8.0,15.0,63,0.00,,,0.00,,2013-04-23 21:21:00,
2013-04-23 16:33:00,75.0,61.0,29.90,South,187,6.0,20.0,61,0.00,,,0.00,,2013-04-23 21:33:00,
2013-04-23 16:43:00,75.0,61.0,29.90,South,187,6.0,20.0,61,0.00,,,0.00,,2013-04-23 21:43:00,
2013-04-23 16:52:00,75.0,61.0,29.90,South,182,8.0,17.0,61,0.00,,,0.00,,2013-04-23 21:52:00,
2013-04-23 17:03:00,74.0,61.0,29.90,South,188,9.0,14.0,63,0.00,,,0.00,,2013-04-23 22:03:00,
2013-04-23 17:12:00,74.0,61.0,29.90,South,188,9.0,14.0,63,0.00,,,0.00,,2013-04-23 22:12:00,
2013-04-23 17:22:00,74.0,61.0,29.89,East,88,4.0,17.0,63,0.00,,,0.00,,2013-04-23 22:22:00,
2013-04-23 17:33:00,74.0,61.0,29.89,South,186,7.0,15.0,64,0.00,,,0.00,,2013-04-23 22:33:00,
2013-04-23 17:42:00,74.0,61.0,29.89,South,186,7.0,15.0,64,0.00,,,0.00,,2013-04-23 22:42:00,
2013-04-23 17:52:00,74.0,61.0,29.89,SSW,209,4.0,16.0,64,0.00,,,0.00,,2013-04-23 22:52:00,
2013-04-23 18:03:00,75.0,62.0,29.88,SSW,211,6.0,14.0,64,0.00,,,0.00,,2013-04-23 23:03:00,
2013-04-23 18:12:00,75.0,62.0,29.88,SSW,211,6.0,14.0,64,0.00,,,0.00,,2013-04-23 23:12:00,
2013-04-23 18:22:00,75.0,62.0,29.88,South,185,3.0,15.0,64,0.00,,,0.00,,2013-04-23 23:22:00,
2013-04-23 18:32:00,74.0,61.0,29.87,South,189,6.0,16.0,64,0.00,,,0.00,,2013-04-23 23:32:00,
2013-04-23 18:42:00,74.0,61.0,29.87,South,189,6.0,16.0,64,0.00,,,0.00,,2013-04-23 23:42:00,
2013-04-23 18:52:00,74.0,61.0,29.87,South,171,3.0,19.0,65,0.00,,,0.00,,2013-04-23 23:52:00,
2013-04-23 19:01:00,74.0,61.0,29.87,SSE,168,5.0,13.0,65,0.00,,,0.00,,2013-04-24 00:01:00,
2013-04-23 19:11:00,74.0,61.0,29.87,SSE,168,5.0,13.0,65,0.00,,,0.00,,2013-04-24 00:11:00,
2013-04-23 19:22:00,74.0,62.0,29.88,SSW,196,6.0,13.0,66,0.00,,,0.00,,2013-04-24 00:22:00,
2013-04-23 19:32:00,73.0,61.0,29.88,South,178,2.0,9.0,67,0.00,,,0.00,,2013-04-24 00:32:00,
2013-04-23 19:41:00,73.0,61.0,29.88,South,178,2.0,9.0,67,0.00,,,0.00,,2013-04-24 00:41:00,
2013-04-23 19:52:00,73.0,62.0,29.88,SSE,167,4.0,9.0,68,0.00,,,0.00,,2013-04-24 00:52:00,
2013-04-23 20:01:00,72.0,61.0,29.88,South,180,0.0,9.0,69,0.00,,,0.00,,2013-04-24 01:01:00,
2013-04-23 20:11:00,72.0,61.0,29.88,South,180,0.0,9.0,69,0.00,,,0.00,,2013-04-24 01:11:00,
2013-04-23 20:21:00,72.0,61.0,29.89,SSW,200,3.0,10.0,69,0.00,,,0.00,,2013-04-24 01:21:00,
2013-04-23 20:32:00,72.0,61.0,29.89,SSW,207,6.0,10.0,69,0.00,,,0.00,,2013-04-24 01:32:00,
2013-04-23 20:42:00,72.0,61.0,29.89,SSW,207,6.0,10.0,69,0.00,,,0.00,,2013-04-24 01:42:00,
2013-04-23 20:52:00,72.0,61.0,29.89,South,178,4.0,10.0,69,0.00,,,0.00,,2013-04-24 01:52:00,
2013-04-23 21:02:00,72.0,61.0,29.89,SSE,167,1.0,6.0,69,0.00,,,0.00,,2013-04-24 02:02:00,
2013-04-23 21:16:00,72.0,61.0,29.89,SSE,167,1.0,6.0,69,0.00,,,0.00,,2013-04-24 02:16:00,
2013-04-23 21:28:00,72.0,61.0,29.89,South,188,1.0,9.0,69,0.00,,,0.00,,2013-04-24 02:28:00,
2013-04-23 21:37:00,72.0,62.0,29.90,South,178,2.0,9.0,70,0.00,,,0.00,,2013-04-24 02:37:00,
2013-04-23 21:59:00,71.0,61.0,29.90,SSE,163,3.0,7.0,71,0.00,,,0.00,,2013-04-24 02:59:00,
2013-04-23 22:07:00,71.0,61.0,29.91,South,176,2.0,8.0,71,0.00,,,0.00,,2013-04-24 03:07:00,
2013-04-23 22:15:00,71.0,61.0,29.91,South,176,2.0,8.0,71,0.00,,,0.00,,2013-04-24 03:15:00,
2013-04-23 22:28:00,71.0,61.0,29.91,SW,229,3.0,12.0,71,0.00,,,0.00,,2013-04-24 03:28:00,
2013-04-23 22:39:00,71.0,62.0,29.91,SSE,152,6.0,12.0,72,0.00,,,0.00,,2013-04-24 03:39:00,
2013-04-23 22:49:00,71.0,62.0,29.91,SSE,152,6.0,12.0,72,0.00,,,0.00,,2013-04-24 03:49:00,
2013-04-23 23:01:00,71.0,62.0,29.90,South,183,0.0,9.0,73,0.00,,,0.00,,2013-04-24 04:01:00,
2013-04-23 23:03:00,70.0,61.0,29.90,South,182,4.0,8.0,73,0.00,,,0.00,,2013-04-24 04:03:00,
2013-04-23 23:12:00,70.0,61.0,29.90,South,182,4.0,8.0,73,0.00,,,0.00,,2013-04-24 04:12:00,
2013-04-23 23:23:00,70.0,61.0,29.90,South,175,0.0,9.0,73,0.00,,,0.00,,2013-04-24 04:23:00,
2013-04-23 23:33:00,70.0,61.0,29.89,South,171,2.0,8.0,74,0.00,,,0.00,,2013-04-24 04:33:00,
2013-04-23 23:43:00,70.0,61.0,29.89,South,171,2.0,8.0,74,0.00,,,0.00,,2013-04-24 04:43:00,
2013-04-23 23:53:00,70.0,62.0,29.89,SE,138,4.0,9.0,75,0.00,,,0.00,,2013-04-24 04:53:00,